Time,TemperatureF,DewpointF,PressureIn,WindDirection,WindDirectionDegrees,WindSpeedMPH,WindSpeedGustMPH,Humidity,HourlyPrecipIn,Conditions,Clouds,dailyrainin,SoftwareType,DateUTC
2013-07-30 00:03:00,64.0,59.0,30.22,West,261,0.0,0.0,85,0.00,,,0.00,,2013-07-30 04:03:00,
2013-07-30 00:23:00,64.0,60.0,30.22,West,261,0.0,0.0,87,0.00,,,0.00,,2013-07-30 04:23:00,
2013-07-30 00:33:00,64.0,60.0,30.22,West,261,0.0,0.0,87,0.00,,,0.00,,2013-07-30 04:33:00,
2013-07-30 00:53:00,63.0,59.0,30.22,West,261,0.0,0.0,88,0.00,,,0.00,,2013-07-30 04:53:00,
2013-07-30 01:33:00,62.0,57.0,30.22,West,261,0.0,0.0,85,0.00,,,0.00,,2013-07-30 05:33:00,
2013-07-30 01:52:00,62.0,57.0,30.21,West,261,0.0,0.0,85,0.00,,,0.00,,2013-07-30 05:52:00,
2013-07-30 02:13:00,61.0,57.0,30.21,West,261,0.0,0.0,87,0.00,,,0.00,,2013-07-30 06:13:00,
2013-07-30 02:23:00,61.0,57.0,30.21,West,261,0.0,0.0,87,0.00,,,0.00,,2013-07-30 06:23:00,
2013-07-30 02:33:00,61.0,58.0,30.20,West,261,0.0,0.0,89,0.00,,,0.00,,2013-07-30 06:33:00,
2013-07-30 02:43:00,61.0,58.0,30.20,West,261,0.0,0.0,90,0.00,,,0.00,,2013-07-30 06:43:00,
2013-07-30 02:53:00,61.0,58.0,30.20,West,261,0.0,0.0,90,0.00,,,0.00,,2013-07-30 06:53:00,
2013-07-30 03:03:00,61.0,58.0,30.20,West,261,0.0,0.0,91,0.00,,,0.00,,2013-07-30 07:03:00,
2013-07-30 03:13:00,61.0,58.0,30.20,West,261,0.0,0.0,91,0.00,,,0.00,,2013-07-30 07:13:00,
2013-07-30 03:23:00,61.0,58.0,30.20,West,261,0.0,0.0,91,0.00,,,0.00,,2013-07-30 07:23:00,
2013-07-30 03:33:00,61.0,59.0,30.20,West,261,0.0,0.0,92,0.00,,,0.00,,2013-07-30 07:33:00,
2013-07-30 03:43:00,60.0,58.0,30.20,West,261,0.0,0.0,92,0.00,,,0.00,,2013-07-30 07:43:00,
2013-07-30 03:53:00,60.0,58.0,30.21,West,261,0.0,0.0,92,0.00,,,0.00,,2013-07-30 07:53:00,
2013-07-30 04:03:00,60.0,58.0,30.21,West,261,0.0,0.0,93,0.00,,,0.00,,2013-07-30 08:03:00,
2013-07-30 04:13:00,60.0,58.0,30.21,West,261,0.0,0.0,93,0.00,,,0.00,,2013-07-30 08:13:00,
2013-07-30 04:23:00,60.0,58.0,30.20,West,261,0.0,0.0,93,0.00,,,0.00,,2013-07-30 08:23:00,
2013-07-30 04:43:00,59.0,57.0,30.21,West,261,0.0,0.0,93,0.00,,,0.00,,2013-07-30 08:43:00,
2013-07-30 04:53:00,60.0,58.0,30.21,West,261,0.0,0.0,94,0.00,,,0.00,,2013-07-30 08:53:00,
2013-07-30 05:03:00,59.0,57.0,30.21,West,261,0.0,0.0,94,0.00,,,0.00,,2013-07-30 09:03:00,
2013-07-30 05:43:00,59.0,57.0,30.22,West,261,0.0,0.0,94,0.00,,,0.00,,2013-07-30 09:43:00,
2013-07-30 05:53:00,59.0,57.0,30.22,West,261,0.0,0.0,94,0.00,,,0.00,,2013-07-30 09:53:00,
2013-07-30 08:33:00,59.0,58.0,30.25,West,261,0.0,0.0,96,0.00,,,0.00,,2013-07-30 12:33:00,
2013-07-30 08:42:00,59.0,58.0,30.25,West,261,0.0,0.0,96,0.00,,,0.00,,2013-07-30 12:42:00,
2013-07-30 08:53:00,59.0,58.0,30.26,West,261,0.0,0.0,96,0.00,,,0.00,,2013-07-30 12:53:00,
2013-07-30 09:43:00,66.0,62.0,30.25,West,261,0.0,0.0,86,0.00,,,0.00,,2013-07-30 13:43:00,
2013-07-30 10:02:00,67.0,62.0,30.25,SW,215,0.0,1.0,83,0.00,,,0.00,,2013-07-30 14:02:00,
2013-07-30 10:53:00,74.0,64.0,30.24,South,178,0.0,2.0,71,0.00,,,0.00,,2013-07-30 14:53:00,
2013-07-30 11:02:00,75.0,63.0,30.24,South,184,0.0,2.0,66,0.00,,,0.00,,2013-07-30 15:02:00,
2013-07-30 11:33:00,75.0,63.0,30.24,ESE,120,0.0,3.0,66,0.00,,,0.00,,2013-07-30 15:33:00,
2013-07-30 11:43:00,76.0,64.0,30.24,SSE,152,0.0,1.0,67,0.00,,,0.00,,2013-07-30 15:43:00,
2013-07-30 12:02:00,77.0,63.0,30.24,ESE,107,0.0,3.0,63,0.00,,,0.00,,2013-07-30 16:02:00,
2013-07-30 12:44:00,80.0,66.0,30.22,SSE,167,0.0,1.0,63,0.00,,,0.00,,2013-07-30 16:44:00,
2013-07-30 12:52:00,80.0,67.0,30.22,SSE,167,0.0,1.0,64,0.00,,,0.00,,2013-07-30 16:52:00,
2013-07-30 15:03:00,77.0,67.0,30.21,SSW,192,0.0,1.0,71,0.00,,,0.00,,2013-07-30 19:03:00,
2013-07-30 16:12:00,77.0,68.0,30.20,SE,144,0.0,1.0,74,0.00,,,0.00,,2013-07-30 20:12:00,
2013-07-30 16:43:00,77.0,67.0,30.20,ESE,108,0.0,0.0,71,0.00,,,0.00,,2013-07-30 20:43:00,
2013-07-30 16:52:00,78.0,67.0,30.19,ESE,108,0.0,0.0,69,0.00,,,0.00,,2013-07-30 20:52:00,
2013-07-30 17:52:00,79.0,69.0,30.19,SSE,156,0.0,1.0,71,0.00,,,0.00,,2013-07-30 21:52:00,
2013-07-30 18:02:00,79.0,68.0,30.19,SSE,156,0.0,1.0,70,0.00,,,0.00,,2013-07-30 22:02:00,
2013-07-30 18:32:00,76.0,68.0,30.20,SSE,149,0.0,1.0,77,0.00,,,0.00,,2013-07-30 22:32:00,
2013-07-30 18:43:00,75.0,68.0,30.19,East,101,0.0,2.0,78,0.00,,,0.00,,2013-07-30 22:43:00,
2013-07-30 18:52:00,75.0,68.0,30.18,East,101,0.0,0.0,79,0.00,,,0.00,,2013-07-30 22:52:00,
2013-07-30 19:02:00,75.0,68.0,30.17,SW,230,0.0,2.0,80,0.00,,,0.00,,2013-07-30 23:02:00,
2013-07-30 19:13:00,74.0,68.0,30.17,SW,230,0.0,1.0,81,0.00,,,0.00,,2013-07-30 23:13:00,
2013-07-30 19:22:00,74.0,68.0,30.18,SW,230,0.0,0.0,82,0.00,,,0.00,,2013-07-30 23:22:00,
2013-07-30 19:32:00,73.0,67.0,30.18,SSW,199,0.0,1.0,81,0.00,,,0.00,,2013-07-30 23:32:00,
2013-07-30 19:42:00,72.0,67.0,30.18,South,187,0.0,1.0,83,0.00,,,0.00,,2013-07-30 23:42:00,
2013-07-30 19:53:00,72.0,67.0,30.19,South,187,0.0,0.0,84,0.00,,,0.00,,2013-07-30 23:53:00,
2013-07-30 20:02:00,71.0,66.0,30.19,South,187,0.0,1.0,85,0.00,,,0.00,,2013-07-31 00:02:00,
2013-07-30 20:12:00,70.0,66.0,30.19,South,187,0.0,0.0,86,0.00,,,0.00,,2013-07-31 00:12:00,
2013-07-30 20:32:00,70.0,66.0,30.18,South,187,0.0,0.0,87,0.00,,,0.00,,2013-07-31 00:32:00,
2013-07-30 20:43:00,70.0,66.0,30.18,South,187,0.0,0.0,88,0.00,,,0.00,,2013-07-31 00:43:00,
2013-07-30 20:53:00,70.0,66.0,30.18,South,187,0.0,0.0,87,0.00,,,0.00,,2013-07-31 00:53:00,
2013-07-30 21:02:00,69.0,65.0,30.18,South,187,0.0,0.0,88,0.00,,,0.00,,2013-07-31 01:02:00,
2013-07-30 21:12:00,69.0,65.0,30.19,South,187,0.0,0.0,88,0.00,,,0.00,,2013-07-31 01:12:00,
2013-07-30 21:32:00,68.0,65.0,30.19,South,187,0.0,0.0,90,0.00,,,0.00,,2013-07-31 01:32:00,
2013-07-30 21:52:00,68.0,65.0,30.20,South,187,0.0,0.0,91,0.00,,,0.00,,2013-07-31 01:52:00,
2013-07-30 22:22:00,68.0,65.0,30.21,South,187,0.0,0.0,91,0.00,,,0.00,,2013-07-31 02:22:00,
2013-07-30 22:32:00,68.0,65.0,30.21,South,187,0.0,0.0,91,0.00,,,0.00,,2013-07-31 02:32:00,
2013-07-30 23:02:00,68.0,66.0,30.21,South,187,0.0,0.0,92,0.00,,,0.00,,2013-07-31 03:02:00,
2013-07-30 23:42:00,68.0,66.0,30.23,South,187,0.0,0.0,93,0.00,,,0.00,,2013-07-31 03:42:00,